sat.trackr.live / text

‹ back to catalog

TRANSPORTER-17 OBJECT V

NORAD 69888 · 2026-156V

PAYLOAD ACTIVE UNKNOWN

§ Identity

Operator
Country
TBD
Launch date
2026-07-07
Launch site
AFWTR
Launch vehicle
Mass (kg)
RCS (m²)

External: N2YO · Heavens-Above · Gunter

§ Orbital elements

Epoch: 2026-09-19T00:12:58.741344Z

Period
96.55 min
Inclination
97.7478°
Eccentricity
0.0003225
Mean motion
14.91524782 rev/d
Perigee alt
590.9 km
Apogee alt
595.4 km
Semi-major
6,971.3 km
B*
1.6747e-4
RAAN
161.2115°
Arg perigee
261.2282°
Mean anomaly
98.8571°
Rev number
1,082

§ Raw data

TRANSPORTER-17 OBJECT V1 69888U 26156V   26262.00901321  .00001622  00000+0  16747-3 0  99912 69888  97.7478 161.2115 0003225 261.2282  98.8571 14.91524782 10827

JSON: /api/v1/satellites/69888 · /tle

For live sub-satellite position, see the globe view (requires WebGL).

§ Visibility from observer

Set your observer location to see the next 7 days of passes ≥ 10°. The values pass through the URL so the page stays shareable.

No JS? Fill the form by hand. The geolocation button needs JavaScript.